EZY7261 LEPA-EGMC

Flight info

Callsign EZY7261
Flight time 2h 12m
Altitude 38000
Route GALAT N861 OLOXO DCT OKABI DCT TOU DCT TUPAR UN861 ANG DCT BULOX DCT ANGLO UZ273 NEVIL
Aircraft A20N/M-SDE2E3FGHIRWXY/LB1

Departure

Time 2026-05-06 12:33
Airport Palma de Mallorca Airport (LEPA)

Arrival

Time 2026-05-06 14:46
Airport London Southend Airport (EGMC)
Time Latitude Longitude Altitude Speed Heading
2026-05-06 11:37 39.55181 2.72736 21 ft 0 kts 194°
2026-05-06 12:27 39.55176 2.72735 21 ft 2 kts 194°
2026-05-06 12:27 39.55166 2.72731 23 ft 0 kts 194°
2026-05-06 12:28 39.55141 2.72725 21 ft 7 kts 182°
2026-05-06 12:28 39.55125 2.72781 24 ft 10 kts 52°
2026-05-06 12:28 39.55176 2.72883 21 ft 16 kts 57°
2026-05-06 12:28 39.55235 2.73010 23 ft 10 kts 60°
2026-05-06 12:29 39.55297 2.73028 21 ft 13 kts 322°
2026-05-06 12:29 39.55385 2.72975 23 ft 16 kts 355°
2026-05-06 12:29 39.55455 2.73082 20 ft 18 kts 64°
2026-05-06 12:29 39.55523 2.73229 19 ft 21 kts 60°
2026-05-06 12:30 39.55606 2.73402 19 ft 24 kts 58°
2026-05-06 12:30 39.55699 2.73599 19 ft 27 kts 59°
2026-05-06 12:30 39.55800 2.73812 18 ft 29 kts 57°
2026-05-06 12:30 39.55912 2.74038 18 ft 31 kts 59°
2026-05-06 12:31 39.56002 2.74237 17 ft 14 kts 60°
2026-05-06 12:31 39.56076 2.74337 17 ft 17 kts 11°
2026-05-06 12:31 39.56136 2.74304 17 ft 0 kts 319°
2026-05-06 12:32 39.56145 2.74293 17 ft 5 kts 319°
2026-05-06 12:32 39.56194 2.74233 17 ft 14 kts 295°
2026-05-06 12:32 39.56153 2.74107 17 ft 18 kts 238°
2026-05-06 12:33 39.55997 2.73781 18 ft 76 kts 238°
2026-05-06 12:33 39.55621 2.72991 20 ft 128 kts 238°
2026-05-06 12:33 39.55108 2.71911 382 ft 137 kts 238°
2026-05-06 12:33 39.54593 2.70835 932 ft 147 kts 237°
2026-05-06 12:34 39.54039 2.69680 1419 ft 158 kts 238°
2026-05-06 12:34 39.53468 2.68427 1904 ft 166 kts 240°
2026-05-06 12:34 39.52807 2.67133 2283 ft 184 kts 233°
2026-05-06 12:34 39.51999 2.65737 2708 ft 205 kts 233°
2026-05-06 12:35 39.51153 2.64224 3218 ft 221 kts 234°
2026-05-06 12:35 39.50298 2.62597 4057 ft 225 kts 236°
2026-05-06 12:35 39.49458 2.60937 5101 ft 223 kts 237°
2026-05-06 12:35 39.48622 2.59254 6090 ft 223 kts 237°
2026-05-06 12:36 39.47772 2.57533 6997 ft 225 kts 237°
2026-05-06 12:36 39.46934 2.55836 7950 ft 226 kts 238°
2026-05-06 12:36 39.46089 2.54124 8959 ft 227 kts 238°
2026-05-06 12:36 39.45235 2.52386 9887 ft 230 kts 241°
2026-05-06 12:37 39.44726 2.50441 10457 ft 231 kts 265°
2026-05-06 12:37 39.44959 2.48393 10883 ft 234 kts 292°
2026-05-06 12:37 39.45874 2.46766 11285 ft 241 kts 317°
2026-05-06 12:37 39.47312 2.45596 11727 ft 254 kts 326°
2026-05-06 12:38 39.48899 2.44374 12145 ft 277 kts 325°
2026-05-06 12:38 39.50604 2.43034 12521 ft 300 kts 325°
2026-05-06 12:38 39.52459 2.41567 12847 ft 324 kts 325°
2026-05-06 12:38 39.54437 2.40000 13191 ft 344 kts 325°
2026-05-06 12:39 39.56506 2.38395 13967 ft 350 kts 326°
2026-05-06 12:39 39.58638 2.36812 14743 ft 354 kts 327°
2026-05-06 12:39 39.60800 2.35224 15566 ft 359 kts 326°
2026-05-06 12:39 39.62984 2.33613 16326 ft 363 kts 326°
2026-05-06 12:40 39.65187 2.31977 17044 ft 368 kts 326°
2026-05-06 12:40 39.67419 2.30313 17775 ft 372 kts 326°
2026-05-06 12:40 39.69680 2.28622 18468 ft 377 kts 325°
2026-05-06 12:40 39.71974 2.26905 19130 ft 380 kts 325°
2026-05-06 12:41 39.74270 2.25184 19792 ft 383 kts 325°
2026-05-06 12:41 39.76566 2.23463 20420 ft 387 kts 324°
2026-05-06 12:41 39.78765 2.21813 21028 ft 391 kts 324°
2026-05-06 12:41 39.81136 2.20032 21662 ft 394 kts 324°
2026-05-06 12:42 39.83526 2.18236 22301 ft 398 kts 324°
2026-05-06 12:42 39.85938 2.16422 22919 ft 401 kts 324°
2026-05-06 12:42 39.88367 2.14593 23536 ft 405 kts 324°
2026-05-06 12:42 39.90813 2.12750 24058 ft 408 kts 323°
2026-05-06 12:43 39.93244 2.10918 24592 ft 410 kts 323°
2026-05-06 12:43 39.95729 2.09043 25116 ft 413 kts 323°
2026-05-06 12:43 39.98221 2.07160 25622 ft 415 kts 323°
2026-05-06 12:43 40.00744 2.05253 26118 ft 418 kts 323°
2026-05-06 12:44 40.03275 2.03337 26605 ft 421 kts 323°
2026-05-06 12:44 40.05814 2.01415 27084 ft 423 kts 323°
2026-05-06 12:44 40.08375 1.99474 27542 ft 426 kts 322°
2026-05-06 12:44 40.10953 1.97518 27997 ft 428 kts 322°
2026-05-06 12:45 40.13548 1.95699 28417 ft 436 kts 328°
2026-05-06 12:45 40.16418 1.94218 28833 ft 446 kts 335°
2026-05-06 12:45 40.22603 1.92456 29611 ft 460 kts 342°
2026-05-06 12:46 40.25764 1.91726 29991 ft 462 kts 342°
2026-05-06 12:46 40.28937 1.90984 30333 ft 465 kts 342°
2026-05-06 12:46 40.32127 1.90237 30669 ft 467 kts 342°
2026-05-06 12:46 40.35334 1.89488 31021 ft 469 kts 342°
2026-05-06 12:47 40.38551 1.88738 31426 ft 469 kts 342°
2026-05-06 12:47 40.41726 1.87998 31886 ft 468 kts 342°
2026-05-06 12:47 40.44943 1.87248 32336 ft 467 kts 342°
2026-05-06 12:47 40.48143 1.86501 32778 ft 466 kts 342°
2026-05-06 12:48 40.51333 1.85754 33212 ft 465 kts 342°
2026-05-06 12:48 40.54519 1.85007 33641 ft 464 kts 342°
2026-05-06 12:48 40.57654 1.84272 34036 ft 463 kts 342°
2026-05-06 12:48 40.60828 1.83526 34359 ft 462 kts 342°
2026-05-06 12:49 40.64025 1.82773 34668 ft 462 kts 342°
2026-05-06 12:49 40.67158 1.82035 34955 ft 462 kts 342°
2026-05-06 12:49 40.70330 1.81287 35253 ft 462 kts 342°
2026-05-06 12:49 40.73503 1.80539 35540 ft 462 kts 342°
2026-05-06 12:50 40.76663 1.79792 35823 ft 462 kts 342°
2026-05-06 12:50 40.79830 1.79044 36089 ft 462 kts 342°
2026-05-06 12:50 40.82995 1.78296 36363 ft 462 kts 343°
2026-05-06 12:50 40.86167 1.77545 36614 ft 462 kts 343°
2026-05-06 12:51 40.89326 1.76797 36865 ft 462 kts 343°
2026-05-06 12:51 40.92503 1.76044 37107 ft 462 kts 343°
2026-05-06 12:51 40.95667 1.75293 37347 ft 462 kts 343°
2026-05-06 12:51 40.98796 1.74550 37559 ft 462 kts 343°
2026-05-06 12:52 41.01912 1.73810 37788 ft 463 kts 343°
2026-05-06 12:52 41.05072 1.73070 37955 ft 464 kts 345°
2026-05-06 12:52 41.08308 1.72549 37954 ft 466 kts 347°
2026-05-06 12:53 41.14740 1.71567 37952 ft 465 kts 347°
2026-05-06 12:53 41.21136 1.70575 37951 ft 465 kts 347°
2026-05-06 12:54 41.27567 1.69578 37950 ft 465 kts 347°
2026-05-06 12:54 41.33999 1.68579 37943 ft 465 kts 347°
2026-05-06 12:55 41.40452 1.67583 37941 ft 466 kts 347°
2026-05-06 12:55 41.46860 1.66585 37932 ft 465 kts 347°
2026-05-06 12:56 41.53283 1.65575 37930 ft 464 kts 347°
2026-05-06 12:56 41.59712 1.64570 37929 ft 464 kts 347°
2026-05-06 12:57 41.66125 1.63565 37929 ft 464 kts 347°
2026-05-06 12:57 41.72566 1.62554 37921 ft 463 kts 347°
2026-05-06 12:58 41.78924 1.61554 37917 ft 463 kts 347°
2026-05-06 12:58 41.85329 1.60543 37941 ft 462 kts 347°
2026-05-06 12:59 41.91711 1.59535 37940 ft 461 kts 347°
2026-05-06 12:59 41.98103 1.58523 37941 ft 461 kts 347°
2026-05-06 13:00 42.04461 1.57515 37929 ft 461 kts 347°
2026-05-06 13:00 42.10802 1.56508 37927 ft 460 kts 347°
2026-05-06 13:01 42.17185 1.55491 37929 ft 462 kts 347°
2026-05-06 13:01 42.23538 1.54477 37928 ft 463 kts 347°
2026-05-06 13:02 42.29950 1.53451 37937 ft 463 kts 347°
2026-05-06 13:02 42.36362 1.52425 37941 ft 463 kts 347°
2026-05-06 13:03 42.42781 1.51393 37938 ft 463 kts 348°
2026-05-06 13:03 42.49181 1.50364 37932 ft 464 kts 348°
2026-05-06 13:04 42.55591 1.49331 37927 ft 464 kts 348°
2026-05-06 13:04 42.61977 1.48299 37928 ft 464 kts 348°
2026-05-06 13:05 42.68397 1.47266 37935 ft 464 kts 348°
2026-05-06 13:05 42.74815 1.46235 37946 ft 464 kts 348°
2026-05-06 13:06 42.81193 1.45208 37949 ft 464 kts 348°
2026-05-06 13:06 42.87589 1.44173 37944 ft 464 kts 348°
2026-05-06 13:07 42.93996 1.43134 37953 ft 463 kts 348°
2026-05-06 13:07 43.00436 1.42085 37977 ft 470 kts 348°
2026-05-06 13:08 43.06988 1.41002 38029 ft 478 kts 348°
2026-05-06 13:08 43.13514 1.39923 38041 ft 465 kts 348°
2026-05-06 13:09 43.19851 1.38892 38033 ft 460 kts 349°
2026-05-06 13:09 43.26217 1.37876 37953 ft 462 kts 349°
2026-05-06 13:10 43.32605 1.36836 37951 ft 462 kts 349°
2026-05-06 13:10 43.38988 1.35788 37959 ft 461 kts 349°
2026-05-06 13:11 43.45365 1.34738 37958 ft 461 kts 349°
2026-05-06 13:11 43.51695 1.33693 37965 ft 461 kts 349°
2026-05-06 13:12 43.58080 1.32637 37965 ft 461 kts 349°
2026-05-06 13:12 43.64430 1.31444 37966 ft 458 kts 344°
2026-05-06 13:13 43.69508 1.29521 37966 ft 454 kts 336°
2026-05-06 13:13 43.76158 1.25419 37962 ft 451 kts 329°
2026-05-06 13:14 43.80873 1.22227 37961 ft 451 kts 330°
2026-05-06 13:14 43.86507 1.18402 37953 ft 451 kts 330°
2026-05-06 13:15 43.92094 1.14578 37946 ft 451 kts 330°
2026-05-06 13:15 43.97731 1.10705 37936 ft 451 kts 330°
2026-05-06 13:16 44.03358 1.06831 37939 ft 450 kts 330°
2026-05-06 13:16 44.08953 1.02969 37933 ft 451 kts 330°
2026-05-06 13:17 44.14568 0.99087 37934 ft 451 kts 330°
2026-05-06 13:17 44.20186 0.95194 37934 ft 450 kts 330°
2026-05-06 13:18 44.25794 0.91300 37932 ft 450 kts 330°
2026-05-06 13:18 44.31392 0.87404 37929 ft 449 kts 330°
2026-05-06 13:19 44.36987 0.83503 37928 ft 449 kts 330°
2026-05-06 13:19 44.42557 0.79609 37925 ft 449 kts 330°
2026-05-06 13:20 44.48140 0.75699 37924 ft 449 kts 330°
2026-05-06 13:20 44.53734 0.71773 37922 ft 449 kts 330°
2026-05-06 13:21 44.59320 0.67843 37924 ft 449 kts 330°
2026-05-06 13:21 44.64909 0.63903 37928 ft 449 kts 330°
2026-05-06 13:22 44.70485 0.59964 37934 ft 449 kts 330°
2026-05-06 13:22 44.76068 0.56011 37941 ft 449 kts 330°
2026-05-06 13:23 44.81615 0.52075 37938 ft 449 kts 330°
2026-05-06 13:23 44.87189 0.48111 37939 ft 449 kts 330°
2026-05-06 13:24 44.92771 0.44133 37934 ft 448 kts 330°
2026-05-06 13:24 44.98351 0.40147 37924 ft 449 kts 330°
2026-05-06 13:25 45.03882 0.36188 37921 ft 448 kts 330°
2026-05-06 13:25 45.09457 0.32189 37912 ft 449 kts 331°
2026-05-06 13:26 45.15024 0.28186 37900 ft 448 kts 331°
2026-05-06 13:26 45.20606 0.24164 37901 ft 449 kts 331°
2026-05-06 13:27 45.26135 0.20173 37903 ft 448 kts 331°
2026-05-06 13:27 45.31697 0.16147 37901 ft 448 kts 331°
2026-05-06 13:28 45.37249 0.12120 37905 ft 448 kts 331°
2026-05-06 13:28 45.42822 0.08068 37902 ft 448 kts 331°
2026-05-06 13:29 45.48350 0.04041 37904 ft 448 kts 331°
2026-05-06 13:29 45.53894 -0.00006 37904 ft 448 kts 331°
2026-05-06 13:30 45.59435 -0.04061 37916 ft 448 kts 331°
2026-05-06 13:30 45.65001 -0.08143 37919 ft 448 kts 331°
2026-05-06 13:31 45.70509 -0.12191 37895 ft 448 kts 331°
2026-05-06 13:31 45.76050 -0.16274 37896 ft 447 kts 331°
2026-05-06 13:32 45.81584 -0.20360 37904 ft 447 kts 331°
2026-05-06 13:32 45.87128 -0.24462 37919 ft 447 kts 331°
2026-05-06 13:33 45.92626 -0.28539 37920 ft 446 kts 331°
2026-05-06 13:33 45.98134 -0.32634 37903 ft 446 kts 331°
2026-05-06 13:34 46.03644 -0.36738 37907 ft 445 kts 331°
2026-05-06 13:34 46.09160 -0.40857 37911 ft 445 kts 331°
2026-05-06 13:35 46.14659 -0.44972 37915 ft 445 kts 331°
2026-05-06 13:35 46.20119 -0.49068 37913 ft 445 kts 331°
2026-05-06 13:36 46.25654 -0.53230 37928 ft 445 kts 331°
2026-05-06 13:36 46.31111 -0.57341 37921 ft 445 kts 331°
2026-05-06 13:37 46.36604 -0.61489 37922 ft 445 kts 331°
2026-05-06 13:37 46.42642 -0.65232 37932 ft 447 kts 341°
2026-05-06 13:38 46.48257 -0.67104 37935 ft 449 kts 350°
2026-05-06 13:38 46.54458 -0.68168 37940 ft 449 kts 352°
2026-05-06 13:39 46.60670 -0.69239 37933 ft 449 kts 352°
2026-05-06 13:39 46.66877 -0.70292 37946 ft 449 kts 352°
2026-05-06 13:40 46.73055 -0.71336 37943 ft 449 kts 352°
2026-05-06 13:40 46.79262 -0.72387 37946 ft 449 kts 352°
2026-05-06 13:41 46.85490 -0.73444 37948 ft 449 kts 352°
2026-05-06 13:41 46.91698 -0.74500 37957 ft 449 kts 352°
2026-05-06 13:42 46.97871 -0.75552 37951 ft 449 kts 352°
2026-05-06 13:42 47.04090 -0.76616 37958 ft 449 kts 352°
2026-05-06 13:43 47.10301 -0.77680 37971 ft 449 kts 352°
2026-05-06 13:43 47.16522 -0.78748 37971 ft 449 kts 352°
2026-05-06 13:44 47.22689 -0.79809 37976 ft 449 kts 352°
2026-05-06 13:44 47.28898 -0.80880 37972 ft 449 kts 352°
2026-05-06 13:45 47.35121 -0.81956 37971 ft 449 kts 352°
2026-05-06 13:45 47.44439 -0.83572 37971 ft 449 kts 352°
2026-05-06 13:46 47.50658 -0.84654 37967 ft 449 kts 352°
2026-05-06 13:46 47.56878 -0.84905 37970 ft 451 kts
2026-05-06 13:47 47.63127 -0.84369 37972 ft 451 kts
2026-05-06 13:47 47.69413 -0.83876 37969 ft 451 kts
2026-05-06 13:48 47.75681 -0.83365 37968 ft 451 kts
2026-05-06 13:48 47.81958 -0.82843 37970 ft 451 kts
2026-05-06 13:49 47.88220 -0.82320 37966 ft 451 kts
2026-05-06 13:49 47.94460 -0.81798 37966 ft 451 kts
2026-05-06 13:50 48.00736 -0.81272 37965 ft 451 kts
2026-05-06 13:50 48.07008 -0.80745 37965 ft 451 kts
2026-05-06 13:51 48.13282 -0.80217 37969 ft 451 kts
2026-05-06 13:51 48.19546 -0.79688 37966 ft 451 kts
2026-05-06 13:52 48.25827 -0.79156 37966 ft 451 kts
2026-05-06 13:52 48.32060 -0.78627 37972 ft 451 kts
2026-05-06 13:53 48.38341 -0.78092 37972 ft 451 kts
2026-05-06 13:53 48.44605 -0.77558 37974 ft 451 kts
2026-05-06 13:54 48.50879 -0.77022 37980 ft 451 kts
2026-05-06 13:54 48.57126 -0.76202 37981 ft 452 kts
2026-05-06 13:55 48.63324 -0.74812 37982 ft 452 kts
2026-05-06 13:55 48.69562 -0.73453 37980 ft 451 kts
2026-05-06 13:56 48.74729 -0.72315 37980 ft 452 kts
2026-05-06 13:56 48.81973 -0.70709 37982 ft 451 kts
2026-05-06 13:57 48.88191 -0.69325 37984 ft 452 kts
2026-05-06 13:57 48.93364 -0.68171 37988 ft 451 kts
2026-05-06 13:58 49.00596 -0.66554 37989 ft 451 kts
2026-05-06 13:58 49.06814 -0.65160 37989 ft 451 kts
2026-05-06 13:59 49.11997 -0.63994 37993 ft 452 kts
2026-05-06 13:59 49.18207 -0.62595 37993 ft 452 kts
2026-05-06 14:00 49.24439 -0.61188 37991 ft 452 kts
2026-05-06 14:00 49.30616 -0.59790 37994 ft 452 kts
2026-05-06 14:01 49.36885 -0.58366 37995 ft 452 kts
2026-05-06 14:01 49.43080 -0.56957 37994 ft 452 kts
2026-05-06 14:02 49.49294 -0.55539 37996 ft 452 kts
2026-05-06 14:02 49.55529 -0.54113 37998 ft 452 kts
2026-05-06 14:03 49.61709 -0.52696 37994 ft 452 kts
2026-05-06 14:03 49.67933 -0.51265 37987 ft 452 kts
2026-05-06 14:04 49.74161 -0.49829 37992 ft 452 kts
2026-05-06 14:04 49.80391 -0.48390 37988 ft 452 kts
2026-05-06 14:05 49.86626 -0.46943 37990 ft 452 kts
2026-05-06 14:05 49.92658 -0.44177 37987 ft 455 kts 23°
2026-05-06 14:06 49.98096 -0.39105 37988 ft 457 kts 38°
2026-05-06 14:06 50.03080 -0.33023 37983 ft 457 kts 37°
2026-05-06 14:07 50.08104 -0.26934 37984 ft 458 kts 37°
2026-05-06 14:07 50.12998 -0.20566 37787 ft 459 kts 44°
2026-05-06 14:08 50.15144 -0.16966 37320 ft 459 kts 49°
2026-05-06 14:08 50.17110 -0.13010 36631 ft 460 kts 54°
2026-05-06 14:08 50.18850 -0.08799 35825 ft 462 kts 58°
2026-05-06 14:08 50.20538 -0.04517 35011 ft 464 kts 57°
2026-05-06 14:09 50.22242 -0.00243 34258 ft 463 kts 57°
2026-05-06 14:09 50.23944 0.04028 33482 ft 461 kts 57°
2026-05-06 14:09 50.25621 0.08253 32898 ft 454 kts 58°
2026-05-06 14:09 50.27270 0.12427 32592 ft 444 kts 58°
2026-05-06 14:10 50.28900 0.16563 32330 ft 451 kts 58°
2026-05-06 14:10 50.30550 0.20759 32061 ft 455 kts 58°
2026-05-06 14:10 50.32209 0.24985 31792 ft 455 kts 58°
2026-05-06 14:10 50.33868 0.29212 31541 ft 456 kts 58°
2026-05-06 14:11 50.35527 0.33447 31289 ft 457 kts 58°
2026-05-06 14:11 50.37162 0.37631 31032 ft 457 kts 58°
2026-05-06 14:11 50.38824 0.41893 30780 ft 458 kts 58°
2026-05-06 14:11 50.40487 0.46167 30529 ft 458 kts 58°
2026-05-06 14:12 50.42136 0.50420 30276 ft 456 kts 59°
2026-05-06 14:12 50.43760 0.54694 30028 ft 455 kts 59°
2026-05-06 14:12 50.45361 0.58946 29741 ft 453 kts 59°
2026-05-06 14:12 50.46965 0.63210 29459 ft 451 kts 59°
2026-05-06 14:13 50.48553 0.67436 29172 ft 450 kts 59°
2026-05-06 14:13 50.50145 0.71669 28865 ft 448 kts 59°
2026-05-06 14:13 50.51725 0.75874 28279 ft 447 kts 59°
2026-05-06 14:13 50.53253 0.79947 27688 ft 443 kts 59°
2026-05-06 14:14 50.54810 0.84103 27097 ft 437 kts 59°
2026-05-06 14:14 50.56324 0.88150 26510 ft 432 kts 59°
2026-05-06 14:14 50.57837 0.92203 25910 ft 427 kts 59°
2026-05-06 14:14 50.59334 0.96217 25347 ft 423 kts 59°
2026-05-06 14:15 50.60812 1.00188 24762 ft 419 kts 59°
2026-05-06 14:15 50.62280 1.04138 24157 ft 416 kts 59°
2026-05-06 14:15 50.63736 1.08060 23559 ft 413 kts 59°
2026-05-06 14:15 50.65173 1.11938 22977 ft 408 kts 59°
2026-05-06 14:16 50.66600 1.15795 22397 ft 403 kts 59°
2026-05-06 14:16 50.67999 1.19585 21835 ft 399 kts 59°
2026-05-06 14:16 50.69365 1.23296 21251 ft 394 kts 59°
2026-05-06 14:16 50.70740 1.27035 20542 ft 394 kts 59°
2026-05-06 14:17 50.72102 1.30742 20213 ft 381 kts 59°
2026-05-06 14:17 50.73388 1.34247 20004 ft 360 kts 59°
2026-05-06 14:17 50.74669 1.37504 19811 ft 340 kts 50°
2026-05-06 14:17 50.76281 1.40002 19652 ft 318 kts 32°
2026-05-06 14:18 50.78206 1.41427 19462 ft 297 kts 11°
2026-05-06 14:18 50.80223 1.41685 18982 ft 288 kts 351°
2026-05-06 14:18 50.82103 1.40828 18454 ft 283 kts 331°
2026-05-06 14:18 50.83699 1.39058 17877 ft 279 kts 318°
2026-05-06 14:19 50.85167 1.37061 17311 ft 277 kts 318°
2026-05-06 14:19 50.86623 1.35100 16791 ft 274 kts 318°
2026-05-06 14:19 50.88039 1.33205 16253 ft 271 kts 318°
2026-05-06 14:19 50.89513 1.31236 15713 ft 269 kts 318°
2026-05-06 14:20 50.90941 1.29330 15182 ft 267 kts 318°
2026-05-06 14:20 50.92359 1.27436 14690 ft 264 kts 318°
2026-05-06 14:20 50.93750 1.25577 14194 ft 262 kts 318°
2026-05-06 14:20 50.95152 1.23701 13689 ft 261 kts 318°
2026-05-06 14:21 50.96533 1.21849 13160 ft 258 kts 319°
2026-05-06 14:21 50.97864 1.20063 12711 ft 253 kts 319°
2026-05-06 14:21 50.99216 1.18247 12333 ft 247 kts 319°
2026-05-06 14:21 51.00519 1.16497 11968 ft 252 kts 319°
2026-05-06 14:22 51.01862 1.14689 11593 ft 255 kts 320°
2026-05-06 14:22 51.03210 1.12875 11211 ft 253 kts 320°
2026-05-06 14:22 51.04531 1.11096 10973 ft 249 kts 320°
2026-05-06 14:22 51.05854 1.09311 10712 ft 245 kts 320°
2026-05-06 14:23 51.07119 1.07606 10395 ft 245 kts 320°
2026-05-06 14:23 51.08386 1.05898 10253 ft 234 kts 320°
2026-05-06 14:23 51.09638 1.04208 10163 ft 239 kts 320°
2026-05-06 14:23 51.10924 1.02472 10054 ft 247 kts 320°
2026-05-06 14:24 51.12180 1.00773 9914 ft 247 kts 320°
2026-05-06 14:24 51.13498 0.98988 9723 ft 243 kts 320°
2026-05-06 14:24 51.14775 0.97260 9398 ft 241 kts 320°
2026-05-06 14:24 51.16058 0.95520 9036 ft 242 kts 321°
2026-05-06 14:25 51.17310 0.93822 8605 ft 239 kts 321°
2026-05-06 14:25 51.18508 0.92223 8231 ft 223 kts 322°
2026-05-06 14:25 51.19736 0.90599 7962 ft 242 kts 322°
2026-05-06 14:25 51.21037 0.88858 7776 ft 241 kts 321°
2026-05-06 14:26 51.22299 0.87143 7480 ft 236 kts 321°
2026-05-06 14:26 51.23549 0.85434 7048 ft 236 kts 321°
2026-05-06 14:26 51.24781 0.83741 6688 ft 231 kts 321°
2026-05-06 14:26 51.25974 0.81993 6421 ft 235 kts 317°
2026-05-06 14:27 51.27121 0.80138 6123 ft 233 kts 316°
2026-05-06 14:27 51.28253 0.78296 5691 ft 232 kts 316°
2026-05-06 14:27 51.29366 0.76485 5282 ft 230 kts 316°
2026-05-06 14:27 51.30473 0.74676 5083 ft 224 kts 316°
2026-05-06 14:28 51.31589 0.72856 5023 ft 231 kts 316°
2026-05-06 14:28 51.32695 0.71053 5026 ft 218 kts 316°
2026-05-06 14:28 51.33701 0.69397 5022 ft 198 kts 316°
2026-05-06 14:28 51.34612 0.67888 4989 ft 181 kts 316°
2026-05-06 14:29 51.35513 0.66393 4998 ft 190 kts 316°
2026-05-06 14:29 51.36423 0.64891 4999 ft 188 kts 316°
2026-05-06 14:29 51.37339 0.63382 4997 ft 189 kts 316°
2026-05-06 14:29 51.38259 0.61878 4994 ft 187 kts 316°
2026-05-06 14:30 51.39150 0.60417 4916 ft 185 kts 316°
2026-05-06 14:30 51.40043 0.58954 4609 ft 185 kts 316°
2026-05-06 14:30 51.40939 0.57479 4277 ft 184 kts 316°
2026-05-06 14:30 51.41829 0.56010 3950 ft 182 kts 316°
2026-05-06 14:31 51.42708 0.54551 3641 ft 181 kts 316°
2026-05-06 14:31 51.43559 0.53119 3332 ft 178 kts 316°
2026-05-06 14:31 51.44405 0.51686 3070 ft 174 kts 316°
2026-05-06 14:31 51.45228 0.50294 3013 ft 177 kts 316°
2026-05-06 14:32 51.46092 0.48846 3000 ft 178 kts 316°
2026-05-06 14:32 51.46927 0.47448 3006 ft 177 kts 316°
2026-05-06 14:32 51.47804 0.45982 3000 ft 178 kts 316°
2026-05-06 14:32 51.48658 0.44554 3003 ft 178 kts 316°
2026-05-06 14:33 51.49516 0.43120 3006 ft 178 kts 316°
2026-05-06 14:33 51.50345 0.41732 3002 ft 177 kts 316°
2026-05-06 14:33 51.51205 0.40288 3004 ft 178 kts 316°
2026-05-06 14:33 51.52051 0.38868 3002 ft 177 kts 316°
2026-05-06 14:34 51.52908 0.37429 3005 ft 178 kts 316°
2026-05-06 14:34 51.53758 0.35997 3017 ft 177 kts 316°
2026-05-06 14:34 51.54610 0.34561 3022 ft 178 kts 316°
2026-05-06 14:34 51.55463 0.33125 3020 ft 178 kts 316°
2026-05-06 14:35 51.56316 0.31686 3019 ft 178 kts 316°
2026-05-06 14:35 51.57172 0.30251 3028 ft 178 kts 320°
2026-05-06 14:35 51.58260 0.29458 3031 ft 175 kts 359°
2026-05-06 14:35 51.59406 0.30032 3023 ft 177 kts 39°
2026-05-06 14:36 51.60041 0.31731 3024 ft 184 kts 78°
2026-05-06 14:36 51.59831 0.33784 3023 ft 195 kts 118°
2026-05-06 14:36 51.58889 0.35344 3026 ft 200 kts 140°
2026-05-06 14:36 51.57807 0.36656 2996 ft 197 kts 141°
2026-05-06 14:37 51.56694 0.37988 3003 ft 200 kts 141°
2026-05-06 14:37 51.55583 0.39314 3002 ft 198 kts 141°
2026-05-06 14:37 51.54482 0.40638 3005 ft 198 kts 141°
2026-05-06 14:37 51.53377 0.41962 2951 ft 196 kts 141°
2026-05-06 14:38 51.52283 0.43260 2647 ft 196 kts 141°
2026-05-06 14:38 51.51182 0.44565 2287 ft 196 kts 141°
2026-05-06 14:38 51.50103 0.45837 2038 ft 191 kts 141°
2026-05-06 14:38 51.49051 0.47076 2025 ft 192 kts 141°
2026-05-06 14:39 51.48141 0.48644 2005 ft 190 kts 113°
2026-05-06 14:39 51.47354 0.50361 1995 ft 195 kts 141°
2026-05-06 14:39 51.46065 0.50987 2010 ft 198 kts 171°
2026-05-06 14:39 51.44823 0.51852 2004 ft 195 kts 133°
2026-05-06 14:40 51.44177 0.53642 1997 ft 174 kts 106°
2026-05-06 14:40 51.43867 0.55323 1999 ft 142 kts 88°
2026-05-06 14:40 51.44191 0.56582 2013 ft 122 kts 32°
2026-05-06 14:40 51.44982 0.57023 1992 ft 120 kts
2026-05-06 14:41 51.45771 0.56701 2000 ft 117 kts 344°
2026-05-06 14:41 51.46290 0.56438 1999 ft 119 kts 344°
2026-05-06 14:41 51.47086 0.56039 2000 ft 120 kts 344°
2026-05-06 14:41 51.47890 0.55636 2005 ft 123 kts 344°
2026-05-06 14:42 51.48660 0.55261 2000 ft 118 kts 344°
2026-05-06 14:42 51.49423 0.54885 2006 ft 114 kts 344°
2026-05-06 14:42 51.50207 0.54492 2002 ft 121 kts 342°
2026-05-06 14:42 51.50990 0.54120 1985 ft 116 kts
2026-05-06 14:43 51.51619 0.54917 2003 ft 128 kts 63°
2026-05-06 14:43 51.51730 0.56355 1988 ft 130 kts 81°
2026-05-06 14:43 51.51773 0.57798 1993 ft 128 kts 81°
2026-05-06 14:43 51.51973 0.59156 1911 ft 122 kts 47°
2026-05-06 14:44 51.52528 0.60119 1759 ft 123 kts 43°
2026-05-06 14:44 51.53106 0.61124 1508 ft 121 kts 43°
2026-05-06 14:44 51.53688 0.62122 1257 ft 122 kts 43°
2026-05-06 14:45 51.54760 0.64160 827 ft 123 kts 50°
2026-05-06 14:45 51.55242 0.65297 636 ft 122 kts 53°
2026-05-06 14:45 51.55718 0.66372 424 ft 116 kts 53°
2026-05-06 14:45 51.56192 0.67433 273 ft 118 kts 54°
2026-05-06 14:46 51.56671 0.68500 75 ft 115 kts 55°
2026-05-06 14:46 51.57053 0.69354 47 ft 55 kts 54°
2026-05-06 14:46 51.57153 0.69576 48 ft 17 kts 54°
2026-05-06 14:46 51.57228 0.69741 48 ft 20 kts 53°
2026-05-06 14:47 51.57311 0.69923 47 ft 21 kts 54°
2026-05-06 14:47 51.57401 0.70121 48 ft 22 kts 54°
2026-05-06 14:47 51.57494 0.70326 48 ft 16 kts 53°
2026-05-06 14:47 51.57536 0.70437 48 ft 13 kts 81°
2026-05-06 14:48 51.57523 0.70482 46 ft 1 kts 159°
2026-05-06 14:48 51.57494 0.70476 48 ft 9 kts 189°
2026-05-06 14:48 51.57421 0.70456 48 ft 0 kts 190°
2026-05-06 14:50 51.57418 0.70455 48 ft 3 kts 190°
2026-05-06 14:50 51.57355 0.70425 45 ft 14 kts 212°
2026-05-06 14:50 51.57286 0.70285 48 ft 18 kts 236°
2026-05-06 14:50 51.57187 0.70225 48 ft 16 kts 182°
2026-05-06 14:51 51.57098 0.70218 45 ft 0 kts 184°
2026-05-06 14:51 51.57086 0.70217 47 ft 6 kts 184°
2026-05-06 14:51 51.57038 0.70210 48 ft 7 kts 185°
2026-05-06 14:51 51.56993 0.70203 48 ft 5 kts 187°
2026-05-06 14:52 51.56971 0.70215 48 ft 1 kts 126°
2026-05-06 14:52 51.56970 0.70226 47 ft 1 kts 106°
2026-05-06 14:52 51.56969 0.70238 48 ft 1 kts 94°
2026-05-06 14:52 51.56968 0.70251 48 ft 1 kts 94°
2026-05-06 14:53 51.56968 0.70268 48 ft 2 kts 94°
2026-05-06 14:53 51.56967 0.70286 48 ft 0 kts 95°